New Bedford, MA

8:03 AM EST on December 06, 2016 (GMT -0500)
New Bedford Regional

Weather History for KEWB - March, 2013

Change the Weather History Date:

Friday, March 1, 2013

  Actual Average Record
Temperature  
Mean Temperature 40 °F -  
Max Temperature 44 °F 41 °F 59 °F (1972)
Min Temperature 35 °F 27 °F 0 °F (2015)
Degree Days  
Heating Degree Days 26    
Moisture  
Dew Point 31 °F    
Average Humidity 76    
Maximum Humidity 93    
Minimum Humidity 49    
Precipitation  
Precipitation 0.00 in - - ()
Sea Level Pressure  
Sea Level Pressure 29.58 in    
Wind  
Wind Speed 3 mph (NNW)    
Max Wind Speed 10 mph    
Max Gust Speed 20 mph    
Visibility 10 miles    
Events      
Averages and records for this station are not official NWS values.
T = Trace of Precipitation, MM = Missing Value Source: NWS Daily Summary

Daily Weather History Graph

Daily Weather History Graph

Search for Another Location

Airport or City:

Trip Planner

Search our weather history database for the weather conditions in past years. The results will help you decide how hot, cold, wet, or windy it might be!

Date:

Astronomy

Mar. 01, 2013 Rise Set
Actual Time 6:18 AM EST 5:34 PM EST
Civil Twilight 5:50 AM EST 6:02 PM EST
Nautical Twilight 5:18 AM EST 6:34 PM EST
Astronomical Twilight 4:46 AM EST 7:06 PM EST
Moon 10:09 PM EST (3/1) 7:58 AM EST (3/1)
Length of Visible Light 12h 12m
Length of Day
11h 16m
Waning Gibbous, 83% of the Moon is Illuminated
Mar 1
Waning Gibbous
Mar 4
Last Quarter
Mar 11
New
Mar 19
First Quarter
Mar 27
Full

Hourly Weather History & Observations

Time (EST) Temp. Windchill Dew Point Humidity Pressure Visibility Wind Dir Wind Speed Gust Speed Precip Events Conditions
12:23 AM 37.4 °F 34.9 °F 35.6 °F 93% 29.51 in 10.0 mi North 3.5 mph - N/A   Overcast
12:53 AM 37.9 °F - 35.1 °F 89% 29.51 in 10.0 mi Calm Calm - N/A   Overcast
1:16 AM 37.4 °F - 35.6 °F 93% 29.51 in 10.0 mi Calm Calm - N/A   Overcast
1:40 AM 37.4 °F 34.9 °F 35.6 °F 93% 29.51 in 10.0 mi NW 3.5 mph - N/A   Overcast
1:53 AM 37.9 °F 35.5 °F 35.1 °F 89% 29.52 in 10.0 mi NW 3.5 mph - N/A   Overcast
2:09 AM 37.4 °F 33.8 °F 35.6 °F 93% 29.52 in 10.0 mi NNW 4.6 mph - N/A   Overcast
2:38 AM 37.4 °F - 35.6 °F 93% 29.51 in 10.0 mi Calm Calm - N/A   Overcast
2:53 AM 37.9 °F - 35.1 °F 89% 29.52 in 10.0 mi Calm Calm - N/A   Overcast
3:02 AM 37.4 °F - 35.6 °F 93% 29.52 in 10.0 mi Calm Calm - N/A   Overcast
3:10 AM 37.4 °F - 35.6 °F 93% 29.52 in 10.0 mi Calm Calm - N/A   Overcast
3:53 AM 37.9 °F - 35.1 °F 89% 29.53 in 9.0 mi Calm Calm - N/A   Overcast
4:53 AM 37.0 °F 34.5 °F 34.0 °F 89% 29.55 in 10.0 mi NNW 3.5 mph - N/A   Overcast
5:39 AM 37.4 °F - 33.8 °F 87% 29.55 in 10.0 mi Calm Calm - N/A   Overcast
5:53 AM 37.0 °F - 34.0 °F 89% 29.55 in 10.0 mi Calm Calm - N/A   Overcast
6:40 AM 35.6 °F - 33.8 °F 93% 29.56 in 7.0 mi Calm Calm - N/A   Scattered Clouds
6:53 AM 35.6 °F - 33.8 °F 93% 29.56 in 7.0 mi Calm Calm - N/A   Mostly Cloudy
7:13 AM 35.6 °F - 33.8 °F 93% 29.57 in 8.0 mi Calm Calm - N/A   Scattered Clouds
7:21 AM 35.6 °F 32.8 °F 33.8 °F 93% 29.57 in 9.0 mi NW 3.5 mph - N/A   Mostly Cloudy
7:53 AM 37.0 °F 34.5 °F 34.0 °F 89% 29.59 in 10.0 mi NNW 3.5 mph - N/A   Overcast
8:53 AM 39.9 °F 35.8 °F 33.1 °F 77% 29.59 in 10.0 mi Variable 5.8 mph - N/A   Mostly Cloudy
9:19 AM 42.8 °F 38.6 °F 32.0 °F 66% 29.59 in 10.0 mi Variable 6.9 mph 17.3 mph N/A   Scattered Clouds
9:31 AM 41.0 °F 35.2 °F 30.2 °F 65% 29.59 in 10.0 mi North 9.2 mph 19.6 mph N/A   Mostly Cloudy
9:53 AM 41.0 °F 35.8 °F 30.2 °F 65% 29.60 in 10.0 mi NNW 8.1 mph - N/A   Overcast
10:53 AM 42.1 °F 36.6 °F 30.0 °F 62% 29.61 in 10.0 mi North 9.2 mph - N/A   Overcast
11:38 AM 42.8 °F 37.5 °F 28.4 °F 57% 29.61 in 10.0 mi North 9.2 mph - N/A   Overcast
11:53 AM 44.1 °F 40.1 °F 28.0 °F 53% 29.61 in 10.0 mi NNW 6.9 mph - N/A   Overcast
12:53 PM 44.1 °F 39.5 °F 28.0 °F 53% 29.59 in 10.0 mi North 8.1 mph 16.1 mph N/A   Overcast
1:53 PM 44.6 °F 41.4 °F 26.6 °F 49% 29.59 in 10.0 mi Variable 5.8 mph - N/A   Overcast
2:53 PM 44.1 °F 40.1 °F 27.0 °F 51% 29.60 in 10.0 mi North 6.9 mph - N/A   Overcast
3:53 PM 42.1 °F 36.1 °F 27.0 °F 55% 29.61 in 10.0 mi North 10.4 mph - N/A   Overcast
4:53 PM 41.0 °F - 27.0 °F 57% 29.63 in 10.0 mi Calm Calm - N/A   Overcast
5:53 PM 39.9 °F 36.7 °F 26.1 °F 58% 29.65 in 10.0 mi NNW 4.6 mph - N/A   Overcast
6:53 PM 39.0 °F - 25.0 °F 57% 29.66 in 10.0 mi Calm Calm - N/A   Overcast
7:53 PM 37.9 °F - 26.1 °F 62% 29.67 in 10.0 mi Calm Calm - N/A   Overcast
8:53 PM 37.9 °F - 26.1 °F 62% 29.67 in 10.0 mi Calm Calm - N/A   Overcast
9:53 PM 37.9 °F 35.5 °F 26.1 °F 62% 29.67 in 10.0 mi NW 3.5 mph - N/A   Overcast
10:53 PM 37.9 °F 34.4 °F 26.1 °F 62% 29.67 in 10.0 mi NW 4.6 mph - N/A   Overcast
11:53 PM 37.0 °F 32.4 °F 26.1 °F 65% 29.67 in 10.0 mi NW 5.8 mph - N/A   Overcast